(32119) = 1990 QG17 = 1993 BR7 = 1999 FV29 = 1999 GP50 = 2000 LM7

Discovered at Kitt Peak on 2000-06-06 by Spacewatch.

Orbit

Orbit type: Main Belt

Note: WebGL enabled browser required.

epoch2024-03-31.0
epoch JD2460400.5
perihelion date2021-03-02.82690
perihelion JD2459276.32690
argument of perihelion (°)89.30244
ascending node (°)156.03416
inclination (°)10.43918
eccentricity0.0627431
perihelion distance (AU)2.8531087
Tisserand w.r.t. Jupiter3.2
ΔV w.r.t. Earth (km/sec)11.0
semimajor axis (AU)3.0441055
mean anomaly (°)208.61594
mean daily motion (°/day)0.18557280
aphelion distance (AU)3.235
period (years)5.31
P-vector [x]-0.41056375
P-vector [y]-0.89197720
P-vector [z]-0.18924607
Q-vector [x]0.90885678
Q-vector [y]-0.38356151
Q-vector [z]-0.16388995
absolute magnitude13.98
phase slope0.15
uncertainty0
referenceMPEC 2024-D105
observations used1946
oppositions23
arc length (days)12232
first opposition used1990
last opposition used2024
residual rms (arc-secs)0.66
perturbers coarse indicatorM-v
perturbers precise indicator003Ek
first observation date used1990-08-26.0
last observation date used2024-02-21.0
computer nameMPCLINUX
JD of orbit computation2456819.491124
perihelion JD uncertainty (days)2.7110E-04
argument of perihelion uncertainty (°)5.3733E-05
ascending node uncertainty (°)2.3662E-05
inclination uncertainty (°)5.0932E-06
eccentricity uncertainty 3.8890E-08
perihelion distance uncertainty (AU)1.1799E-07
Minimum Orbit Intersection Distances (in AU)
for orbit epoch: 2460400.5, reference: E2024-GH2
Mercury2.40193
Venus2.14182
Earth1.86531
Mars1.30041
Jupiter1.82678
Saturn5.87787
Uranus15.4123
Neptune26.6423

Observations

1982 total observations over interval: 1990 08 26.20347 – 2024 02 21.307141
These data are available for download (format description).

Date (UT) J2000 RA J2000 Dec Magn Location Ref
1990 08 26.20347 23 28 45.13 -05 43 13.4 19.4   809 – European Southern Observatory, La Silla MPC 18963
1990 08 26.21667 23 28 44.58 -05 43 18.5   809 – European Southern Observatory, La Silla MPC 18963
1990 08 26.22986 23 28 44.14 -05 43 25.0   809 – European Southern Observatory, La Silla MPC 18963
1993 01 23.17977 09 17 58.05 +09 29 42.7 19.2   809 – European Southern Observatory, La Silla MPC 21745
1993 01 23.19293 09 17 57.52 +09 29 45.8   809 – European Southern Observatory, La Silla MPC 21745
1993 01 23.20609 09 17 56.98 +09 29 50.6   809 – European Southern Observatory, La Silla MPC 21745
1993 01 28.20556 09 14 15.39 +09 58 00.9   809 – European Southern Observatory, La Silla MPC 21745
1993 01 28.21875 09 14 14.69 +09 58 05.5   809 – European Southern Observatory, La Silla MPC 21745
1993 01 28.23194 09 14 14.04 +09 58 10.0   809 – European Southern Observatory, La Silla MPC 21745
1999 03 19.39230 13 28 06.34 +00 39 00.3 18.4   704 – Lincoln Laboratory ETS, New Mexico MPS 4257
1999 03 19.40355 13 28 06.06 +00 39 06.4 18.4   704 – Lincoln Laboratory ETS, New Mexico MPS 4257
1999 03 19.41472 13 28 05.57 +00 39 11.7 18.9   704 – Lincoln Laboratory ETS, New Mexico MPS 4257
1999 03 19.42584 13 28 05.22 +00 39 17.6 18.3   704 – Lincoln Laboratory ETS, New Mexico MPS 4257
1999 03 19.43703 13 28 04.85 +00 39 21.9 18.3   704 – Lincoln Laboratory ETS, New Mexico MPS 4257
1999 03 20.360150 13 27 35.825 +00 46 28.21 18.46 V 645 – Apache Point-Sloan Digital Sky Survey MPS 80982
1999 03 20.363622 13 27 35.708 +00 46 29.82 19.25   645 – Apache Point-Sloan Digital Sky Survey MPS 80982
1999 03 20.39029 13 27 34.84 +00 46 42.2 19.1   704 – Lincoln Laboratory ETS, New Mexico MPS 4257
1999 03 20.40842 13 27 34.11 +00 46 50.5 19.2   704 – Lincoln Laboratory ETS, New Mexico MPS 4257
1999 03 20.41566 13 27 34.09 +00 46 55.2 18.2 R 699 – Lowell Observatory-LONEOS MPS 69165
1999 03 20.42650 13 27 33.61 +00 46 56.8 19.2   704 – Lincoln Laboratory ETS, New Mexico MPS 4257
1999 03 20.44465 13 27 32.92 +00 47 06.0 19.3   704 – Lincoln Laboratory ETS, New Mexico MPS 4257
1999 03 20.45671 13 27 32.64 +00 47 13.2   699 – Lowell Observatory-LONEOS MPS 69165
1999 03 20.46291 13 27 32.32 +00 47 15.1 19.5   704 – Lincoln Laboratory ETS, New Mexico MPS 4257
1999 03 20.48818 13 27 31.62 +00 47 27.6   699 – Lowell Observatory-LONEOS MPS 69165
1999 03 21.357040 13 27 03.463 +00 54 09.90 18.46 V 645 – Apache Point-Sloan Digital Sky Survey MPS 80982
1999 03 21.360512 13 27 03.341 +00 54 11.48 19.25   645 – Apache Point-Sloan Digital Sky Survey MPS 80982
1999 04 10.28425 13 14 02.04 +03 25 33.0 18.5 R 699 – Lowell Observatory-LONEOS MPS 13607
1999 04 10.30972 13 14 00.85 +03 25 43.2   699 – Lowell Observatory-LONEOS MPS 13607
1999 04 10.33520 13 13 59.77 +03 25 54.6   699 – Lowell Observatory-LONEOS MPS 13607
1999 04 16.36333 13 09 45.21 +04 05 58.7 17.7   704 – Lincoln Laboratory ETS, New Mexico MPS 13607
1999 04 16.37512 13 09 44.62 +04 06 02.8 18.3   704 – Lincoln Laboratory ETS, New Mexico MPS 13607
1999 04 16.38733 13 09 44.11 +04 06 07.4 18.3   704 – Lincoln Laboratory ETS, New Mexico MPS 13607
1999 04 16.39952 13 09 43.71 +04 06 12.0 18.3   704 – Lincoln Laboratory ETS, New Mexico MPS 13607
1999 04 16.41118 13 09 43.20 +04 06 16.6 18.6   704 – Lincoln Laboratory ETS, New Mexico MPS 13607
1999 05 10.22161 12 56 19.73 +05 46 59.9 18.6 R 699 – Lowell Observatory-LONEOS MPS 17537
1999 05 10.24704 12 56 18.99 +05 47 05.0   699 – Lowell Observatory-LONEOS MPS 17537
1999 05 10.27251 12 56 18.45 +05 47 08.3   699 – Lowell Observatory-LONEOS MPS 17537
2000 06 06.34125 20 04 48.53 -09 02 27.9 18.6 V 691 – Steward Observatory, Kitt Peak-Spacewatch MPS 16022
2000 06 06.36407 20 04 48.13 -09 02 27.9 18.7 V 691 – Steward Observatory, Kitt Peak-Spacewatch MPS 16022
2000 06 06.38605 20 04 47.81 -09 02 28.2 18.5 V 691 – Steward Observatory, Kitt Peak-Spacewatch MPS 16022
2000 06 07.43927 20 04 32.09 -09 02 13.7 19.5 V 691 – Steward Observatory, Kitt Peak-Spacewatch MPS 16022
2000 06 07.45330 20 04 31.85 -09 02 13.6 19.2 V 691 – Steward Observatory, Kitt Peak-Spacewatch MPS 16022
2000 06 07.46695 20 04 31.63 -09 02 13.4 19.2 V 691 – Steward Observatory, Kitt Peak-Spacewatch MPS 16022
2000 06 08.34833 20 04 17.57 -09 02 09.3 18.2   704 – Lincoln Laboratory ETS, New Mexico MPS 16022
2000 06 08.36089 20 04 17.26 -09 02 08.4 18.7   704 – Lincoln Laboratory ETS, New Mexico MPS 16022
2000 06 08.37349 20 04 17.11 -09 02 08.0 18.6   704 – Lincoln Laboratory ETS, New Mexico MPS 16022
2000 06 08.38603 20 04 16.80 -09 02 08.0 18.9   704 – Lincoln Laboratory ETS, New Mexico MPS 16022
2000 06 08.39856 20 04 16.59 -09 02 08.5 18.9   704 – Lincoln Laboratory ETS, New Mexico MPS 16022
2000 06 09.37309 20 03 59.82 -09 02 10.5 20.1 V 691 – Steward Observatory, Kitt Peak-Spacewatch MPS 16022
2000 06 09.40820 20 03 59.03 -09 02 11.3 18.4 V 691 – Steward Observatory, Kitt Peak-Spacewatch MPS 16022
2000 06 09.44965 20 03 58.21 -09 02 11.4 18.7 V 691 – Steward Observatory, Kitt Peak-Spacewatch MPS 16022
2000 06 10.34936 20 03 41.49 -09 02 20.0 18.0   704 – Lincoln Laboratory ETS, New Mexico MPS 16022
2000 06 10.36189 20 03 41.21 -09 02 20.5 18.7   704 – Lincoln Laboratory ETS, New Mexico MPS 16022
2000 06 10.37437 20 03 40.98 -09 02 20.7 18.7   704 – Lincoln Laboratory ETS, New Mexico MPS 16022
2000 06 10.38689 20 03 40.67 -09 02 20.3 18.5   704 – Lincoln Laboratory ETS, New Mexico MPS 16022
2000 06 10.39934 20 03 40.40 -09 02 20.6 18.8   704 – Lincoln Laboratory ETS, New Mexico MPS 16022
2001 09 19.33231 01 29 20.89 -00 11 01.5 18.2   704 – Lincoln Laboratory ETS, New Mexico MPS 35747
2001 09 19.34670 01 29 20.43 -00 11 07.0 19.3   704 – Lincoln Laboratory ETS, New Mexico MPS 35747
2001 09 19.36089 01 29 19.94 -00 11 13.4 19.1   704 – Lincoln Laboratory ETS, New Mexico MPS 35747
2001 09 19.37508 01 29 19.46 -00 11 18.9 18.8   704 – Lincoln Laboratory ETS, New Mexico MPS 35747
2001 09 19.38937 01 29 18.97 -00 11 25.5 18.6   704 – Lincoln Laboratory ETS, New Mexico MPS 35747
2001 09 21.32399 01 28 15.07 -00 24 47.2 18.5   704 – Lincoln Laboratory ETS, New Mexico MPS 35747
2001 09 21.33867 01 28 14.52 -00 24 53.5 18.5   704 – Lincoln Laboratory ETS, New Mexico MPS 35747
2001 09 21.35279 01 28 14.02 -00 24 59.1 18.6   704 – Lincoln Laboratory ETS, New Mexico MPS 35747
2001 09 21.36730 01 28 13.52 -00 25 05.1 18.5   704 – Lincoln Laboratory ETS, New Mexico MPS 35747
2001 09 21.38168 01 28 12.98 -00 25 11.2 18.9   704 – Lincoln Laboratory ETS, New Mexico MPS 35747
2001 10 10.33242 01 15 41.95 -02 35 29.7 18.4   644 – Palomar Mountain/NEAT MPS 37629
2001 10 10.35282 01 15 41.04 -02 35 37.4 18.6   644 – Palomar Mountain/NEAT MPS 37629
2001 10 10.37397 01 15 40.10 -02 35 45.7 18.3   644 – Palomar Mountain/NEAT MPS 37629
2001 10 12.31909 01 14 16.44 -02 48 12.4 19.2 R 649 – Powell Observatory, Louisburg MPS 37629
2001 10 12.32274 01 14 16.30 -02 48 13.5 19.1 R 649 – Powell Observatory, Louisburg MPS 37629
2001 10 12.32620 01 14 16.16 -02 48 15.4 19.6 R 649 – Powell Observatory, Louisburg MPS 37629
2001 10 16.26021 01 11 27.60 -03 12 17.7 17.9   704 – Lincoln Laboratory ETS, New Mexico MPS 37629
2001 10 16.27691 01 11 26.87 -03 12 23.9 18.2   704 – Lincoln Laboratory ETS, New Mexico MPS 37629
2001 10 16.29346 01 11 26.11 -03 12 29.8 18.3   704 – Lincoln Laboratory ETS, New Mexico MPS 37629
2001 10 16.31056 01 11 25.40 -03 12 36.0 18.2   704 – Lincoln Laboratory ETS, New Mexico MPS 37629
2001 10 16.32724 01 11 24.66 -03 12 41.9 18.4   704 – Lincoln Laboratory ETS, New Mexico MPS 37629
2001 10 19.29722 01 09 19.31 -03 29 42.1 18.0 R 699 – Lowell Observatory-LONEOS MPS 39121
2001 10 19.32063 01 09 18.30 -03 29 50.7   699 – Lowell Observatory-LONEOS MPS 39121
2001 10 19.34408 01 09 17.27 -03 29 58.8   699 – Lowell Observatory-LONEOS MPS 39121
2001 10 19.36757 01 09 16.29 -03 30 06.1   699 – Lowell Observatory-LONEOS MPS 39121
2001 10 20.26124 01 08 39.20 -03 34 57.9 18.9   704 – Lincoln Laboratory ETS, New Mexico MPS 39121
2001 10 20.27760 01 08 38.49 -03 35 03.5 19.1   704 – Lincoln Laboratory ETS, New Mexico MPS 39121
